Data supplied by UK-AIR on 5/4/2008
All Data GMT hour ending 
Status: R =Ratified P=Provisional,P*=As supplied
,,London Sutton,,,,,,,,,,,,,,,,,,,,,,,
Date,time,"Nitric oxide",status,unit,"Nitrogen dioxide",status,unit,"Nitrogen oxides as nitrogen dioxide",status,unit,"Ozone",status,unit
 
01-01-1998,01:00,6,R,ugm-3,34,R,ugm-3,44,R,ugm-3,24,R,ugm-3
01-01-1998,02:00,10,R,ugm-3,38,R,ugm-3,53,R,ugm-3,36,R,ugm-3
01-01-1998,03:00,11,R,ugm-3,38,R,ugm-3,55,R,ugm-3,26,R,ugm-3
01-01-1998,04:00,10,R,ugm-3,32,R,ugm-3,48,R,ugm-3,32,R,ugm-3
01-01-1998,05:00,6,R,ugm-3,27,R,ugm-3,36,R,ugm-3,38,R,ugm-3
01-01-1998,06:00,5,R,ugm-3,25,R,ugm-3,32,R,ugm-3,38,R,ugm-3
01-01-1998,07:00,6,R,ugm-3,38,R,ugm-3,48,R,ugm-3,22,R,ugm-3
01-01-1998,08:00,5,R,ugm-3,36,R,ugm-3,44,R,ugm-3,28,R,ugm-3
01-01-1998,09:00,6,R,ugm-3,36,R,ugm-3,46,R,ugm-3,30,R,ugm-3
01-01-1998,10:00,11,R,ugm-3,34,R,ugm-3,52,R,ugm-3,38,R,ugm-3
01-01-1998,11:00,8,R,ugm-3,23,R,ugm-3,34,R,ugm-3,56,R,ugm-3
01-01-1998,12:00,10,R,ugm-3,23,R,ugm-3,38,R,ugm-3,58,R,ugm-3
01-01-1998,13:00,10,R,ugm-3,27,R,ugm-3,42,R,ugm-3,54,R,ugm-3
01-01-1998,14:00,10,R,ugm-3,21,R,ugm-3,36,R,ugm-3,60,R,ugm-3
01-01-1998,15:00,10,R,ugm-3,21,R,ugm-3,36,R,ugm-3,60,R,ugm-3
01-01-1998,16:00,9,R,ugm-3,17,R,ugm-3,31,R,ugm-3,62,R,ugm-3
01-01-1998,17:00,8,R,ugm-3,17,R,ugm-3,29,R,ugm-3,64,R,ugm-3
01-01-1998,18:00,6,R,ugm-3,13,R,ugm-3,23,R,ugm-3,66,R,ugm-3
01-01-1998,19:00,5,R,ugm-3,11,R,ugm-3,19,R,ugm-3,68,R,ugm-3
01-01-1998,20:00,5,R,ugm-3,10,R,ugm-3,17,R,ugm-3,68,R,ugm-3
01-01-1998,21:00,5,R,ugm-3,10,R,ugm-3,17,R,ugm-3,68,R,ugm-3
01-01-1998,22:00,5,R,ugm-3,15,R,ugm-3,23,R,ugm-3,64,R,ugm-3
01-01-1998,23:00,5,R,ugm-3,13,R,ugm-3,21,R,ugm-3,68,R,ugm-3
01-01-1998,24:00,5,R,ugm-3,11,R,ugm-3,19,R,ugm-3,70,R,ugm-3
02-01-1998,01:00,4,R,ugm-3,8,R,ugm-3,13,R,ugm-3,70,R,ugm-3
02-01-1998,02:00,4,R,ugm-3,8,R,ugm-3,13,R,ugm-3,64,R,ugm-3
02-01-1998,03:00,4,R,ugm-3,4,R,ugm-3,10,R,ugm-3,68,R,ugm-3
02-01-1998,04:00,4,R,ugm-3,6,R,ugm-3,11,R,ugm-3,66,R,ugm-3
02-01-1998,05:00,4,R,ugm-3,6,R,ugm-3,11,R,ugm-3,66,R,ugm-3
02-01-1998,06:00,4,R,ugm-3,6,R,ugm-3,11,R,ugm-3,68,R,ugm-3
02-01-1998,07:00,5,R,ugm-3,13,R,ugm-3,21,R,ugm-3,62,R,ugm-3
02-01-1998,08:00,5,R,ugm-3,15,R,ugm-3,23,R,ugm-3,60,R,ugm-3
02-01-1998,09:00,6,R,ugm-3,17,R,ugm-3,27,R,ugm-3,60,R,ugm-3
02-01-1998,10:00,8,R,ugm-3,27,R,ugm-3,38,R,ugm-3,56,R,ugm-3
02-01-1998,11:00,14,R,ugm-3,32,R,ugm-3,53,R,ugm-3,48,R,ugm-3
02-01-1998,12:00,10,R,ugm-3,23,R,ugm-3,38,R,ugm-3,56,R,ugm-3
02-01-1998,13:00,9,R,ugm-3,36,R,ugm-3,50,R,ugm-3,38,R,ugm-3
02-01-1998,14:00,8,R,ugm-3,36,R,ugm-3,48,R,ugm-3,40,R,ugm-3
02-01-1998,15:00,10,R,ugm-3,46,R,ugm-3,61,R,ugm-3,26,R,ugm-3
02-01-1998,16:00,8,R,ugm-3,32,R,ugm-3,44,R,ugm-3,36,R,ugm-3
02-01-1998,17:00,16,R,ugm-3,48,R,ugm-3,73,R,ugm-3,18,R,ugm-3
02-01-1998,18:00,18,R,ugm-3,52,R,ugm-3,78,R,ugm-3,16,R,ugm-3
02-01-1998,19:00,14,R,ugm-3,40,R,ugm-3,61,R,ugm-3,28,R,ugm-3
02-01-1998,20:00,10,R,ugm-3,38,R,ugm-3,53,R,ugm-3,34,R,ugm-3
02-01-1998,21:00,8,R,ugm-3,27,R,ugm-3,38,R,ugm-3,46,R,ugm-3
02-01-1998,22:00,5,R,ugm-3,15,R,ugm-3,23,R,ugm-3,54,R,ugm-3
02-01-1998,23:00,5,R,ugm-3,15,R,ugm-3,23,R,ugm-3,58,R,ugm-3
02-01-1998,24:00,5,R,ugm-3,13,R,ugm-3,21,R,ugm-3,58,R,ugm-3
03-01-1998,01:00,4,R,ugm-3,15,R,ugm-3,21,R,ugm-3,54,R,ugm-3
03-01-1998,02:00,4,R,ugm-3,11,R,ugm-3,17,R,ugm-3,56,R,ugm-3
03-01-1998,03:00,3,R,ugm-3,6,R,ugm-3,10,R,ugm-3,66,R,ugm-3
03-01-1998,04:00,4,R,ugm-3,4,R,ugm-3,10,R,ugm-3,70,R,ugm-3
03-01-1998,05:00,3,R,ugm-3,4,R,ugm-3,8,R,ugm-3,70,R,ugm-3
03-01-1998,06:00,1,R,ugm-3,4,R,ugm-3,6,R,ugm-3,68,R,ugm-3
03-01-1998,07:00,3,R,ugm-3,8,R,ugm-3,11,R,ugm-3,64,R,ugm-3
03-01-1998,08:00,4,R,ugm-3,8,R,ugm-3,13,R,ugm-3,58,R,ugm-3
03-01-1998,09:00,4,R,ugm-3,11,R,ugm-3,17,R,ugm-3,56,R,ugm-3
03-01-1998,10:00,5,R,ugm-3,10,R,ugm-3,17,R,ugm-3,64,R,ugm-3
03-01-1998,11:00,5,R,ugm-3,11,R,ugm-3,19,R,ugm-3,64,R,ugm-3
03-01-1998,12:00,6,R,ugm-3,19,R,ugm-3,29,R,ugm-3,64,R,ugm-3
03-01-1998,13:00,6,R,ugm-3,19,R,ugm-3,29,R,ugm-3,64,R,ugm-3
03-01-1998,14:00,6,R,ugm-3,17,R,ugm-3,27,R,ugm-3,68,R,ugm-3
03-01-1998,15:00,8,R,ugm-3,23,R,ugm-3,34,R,ugm-3,62,R,ugm-3
03-01-1998,16:00,9,R,ugm-3,25,R,ugm-3,38,R,ugm-3,56,R,ugm-3
03-01-1998,17:00,6,R,ugm-3,19,R,ugm-3,29,R,ugm-3,66,R,ugm-3
03-01-1998,18:00,6,R,ugm-3,23,R,ugm-3,32,R,ugm-3,64,R,ugm-3
03-01-1998,19:00,8,R,ugm-3,23,R,ugm-3,34,R,ugm-3,60,R,ugm-3
03-01-1998,20:00,6,R,ugm-3,21,R,ugm-3,31,R,ugm-3,62,R,ugm-3
03-01-1998,21:00,6,R,ugm-3,15,R,ugm-3,25,R,ugm-3,66,R,ugm-3
03-01-1998,22:00,5,R,ugm-3,15,R,ugm-3,23,R,ugm-3,64,R,ugm-3
03-01-1998,23:00,5,R,ugm-3,13,R,ugm-3,21,R,ugm-3,64,R,ugm-3
03-01-1998,24:00,6,R,ugm-3,15,R,ugm-3,25,R,ugm-3,64,R,ugm-3
04-01-1998,01:00,6,R,ugm-3,11,R,ugm-3,21,R,ugm-3,68,R,ugm-3
04-01-1998,02:00,4,R,ugm-3,8,R,ugm-3,13,R,ugm-3,72,R,ugm-3
04-01-1998,03:00,3,R,ugm-3,4,R,ugm-3,8,R,ugm-3,74,R,ugm-3
04-01-1998,04:00,4,R,ugm-3,4,R,ugm-3,10,R,ugm-3,74,R,ugm-3
04-01-1998,05:00,4,R,ugm-3,4,R,ugm-3,10,R,ugm-3,72,R,ugm-3
04-01-1998,06:00,5,R,ugm-3,11,R,ugm-3,19,R,ugm-3,66,R,ugm-3
04-01-1998,07:00,5,R,ugm-3,23,R,ugm-3,31,R,ugm-3,48,R,ugm-3
04-01-1998,08:00,6,R,ugm-3,21,R,ugm-3,31,R,ugm-3,54,R,ugm-3
04-01-1998,09:00,6,R,ugm-3,11,R,ugm-3,21,R,ugm-3,64,R,ugm-3
04-01-1998,10:00,5,R,ugm-3,10,R,ugm-3,17,R,ugm-3,68,R,ugm-3
04-01-1998,11:00,8,R,ugm-3,21,R,ugm-3,32,R,ugm-3,62,R,ugm-3
04-01-1998,12:00,10,R,ugm-3,25,R,ugm-3,40,R,ugm-3,56,R,ugm-3
04-01-1998,13:00,9,R,ugm-3,21,R,ugm-3,34,R,ugm-3,58,R,ugm-3
04-01-1998,14:00,8,R,ugm-3,17,R,ugm-3,29,R,ugm-3,62,R,ugm-3
04-01-1998,15:00,6,R,ugm-3,15,R,ugm-3,25,R,ugm-3,70,R,ugm-3
04-01-1998,16:00,6,R,ugm-3,13,R,ugm-3,23,R,ugm-3,70,R,ugm-3
04-01-1998,17:00,5,R,ugm-3,11,R,ugm-3,19,R,ugm-3,72,R,ugm-3
04-01-1998,18:00,5,R,ugm-3,11,R,ugm-3,19,R,ugm-3,68,R,ugm-3
04-01-1998,19:00,4,R,ugm-3,11,R,ugm-3,17,R,ugm-3,72,R,ugm-3
04-01-1998,20:00,4,R,ugm-3,11,R,ugm-3,17,R,ugm-3,70,R,ugm-3
04-01-1998,21:00,4,R,ugm-3,11,R,ugm-3,17,R,ugm-3,68,R,ugm-3
04-01-1998,22:00,5,R,ugm-3,11,R,ugm-3,19,R,ugm-3,66,R,ugm-3
04-01-1998,23:00,4,R,ugm-3,11,R,ugm-3,17,R,ugm-3,68,R,ugm-3
04-01-1998,24:00,4,R,ugm-3,6,R,ugm-3,11,R,ugm-3,78,R,ugm-3
05-01-1998,01:00,3,R,ugm-3,4,R,ugm-3,8,R,ugm-3,80,R,ugm-3
05-01-1998,02:00,1,R,ugm-3,4,R,ugm-3,6,R,ugm-3,82,R,ugm-3
05-01-1998,03:00,3,R,ugm-3,4,R,ugm-3,8,R,ugm-3,80,R,ugm-3
05-01-1998,04:00,3,R,ugm-3,4,R,ugm-3,8,R,ugm-3,76,R,ugm-3
05-01-1998,05:00,3,R,ugm-3,4,R,ugm-3,8,R,ugm-3,74,R,ugm-3
05-01-1998,06:00,5,R,ugm-3,10,R,ugm-3,17,R,ugm-3,68,R,ugm-3
05-01-1998,07:00,14,R,ugm-3,52,R,ugm-3,73,R,ugm-3,26,R,ugm-3
05-01-1998,08:00,24,R,ugm-3,52,R,ugm-3,88,R,ugm-3,28,R,ugm-3
05-01-1998,09:00,20,R,ugm-3,63,R,ugm-3,94,R,ugm-3,16,R,ugm-3
05-01-1998,10:00,44,R,ugm-3,78,R,ugm-3,145,R,ugm-3,4,R,ugm-3
05-01-1998,11:00,33,R,ugm-3,53,R,ugm-3,103,R,ugm-3,24,R,ugm-3
05-01-1998,12:00,10,R,ugm-3,25,R,ugm-3,40,R,ugm-3,56,R,ugm-3
05-01-1998,13:00,9,R,ugm-3,25,R,ugm-3,38,R,ugm-3,58,R,ugm-3
05-01-1998,14:00,10,R,ugm-3,31,R,ugm-3,46,R,ugm-3,60,R,ugm-3
05-01-1998,15:00,9,R,ugm-3,25,R,ugm-3,38,R,ugm-3,70,R,ugm-3
05-01-1998,16:00,9,R,ugm-3,32,R,ugm-3,46,R,ugm-3,58,R,ugm-3
05-01-1998,17:00,10,R,ugm-3,40,R,ugm-3,55,R,ugm-3,54,R,ugm-3
05-01-1998,18:00,10,R,ugm-3,46,R,ugm-3,61,R,ugm-3,48,R,ugm-3
05-01-1998,19:00,6,R,ugm-3,48,R,ugm-3,57,R,ugm-3,42,R,ugm-3
05-01-1998,20:00,6,R,ugm-3,48,R,ugm-3,57,R,ugm-3,32,R,ugm-3
05-01-1998,21:00,11,R,ugm-3,67,R,ugm-3,84,R,ugm-3,6,R,ugm-3
05-01-1998,22:00,23,R,ugm-3,69,R,ugm-3,103,R,ugm-3,0,R,ugm-3
05-01-1998,23:00,19,R,ugm-3,65,R,ugm-3,94,R,ugm-3,0,R,ugm-3
05-01-1998,24:00,9,R,ugm-3,48,R,ugm-3,61,R,ugm-3,10,R,ugm-3
06-01-1998,01:00,5,R,ugm-3,27,R,ugm-3,34,R,ugm-3,28,R,ugm-3
06-01-1998,02:00,5,R,ugm-3,23,R,ugm-3,31,R,ugm-3,38,R,ugm-3
06-01-1998,03:00,4,R,ugm-3,15,R,ugm-3,21,R,ugm-3,46,R,ugm-3
06-01-1998,04:00,6,R,ugm-3,17,R,ugm-3,27,R,ugm-3,42,R,ugm-3
06-01-1998,05:00,5,R,ugm-3,15,R,ugm-3,23,R,ugm-3,46,R,ugm-3
06-01-1998,06:00,9,R,ugm-3,25,R,ugm-3,38,R,ugm-3,36,R,ugm-3
06-01-1998,07:00,20,R,ugm-3,46,R,ugm-3,76,R,ugm-3,20,R,ugm-3
06-01-1998,08:00,116,R,ugm-3,67,R,ugm-3,244,R,ugm-3,2,R,ugm-3
06-01-1998,09:00,110,R,ugm-3,67,R,ugm-3,235,R,ugm-3,0,R,ugm-3
06-01-1998,10:00,99,R,ugm-3,67,R,ugm-3,218,R,ugm-3,0,R,ugm-3
06-01-1998,11:00,63,R,ugm-3,65,R,ugm-3,160,R,ugm-3,6,R,ugm-3
06-01-1998,12:00,29,R,ugm-3,53,R,ugm-3,97,R,ugm-3,16,R,ugm-3
06-01-1998,13:00,34,R,ugm-3,59,R,ugm-3,111,R,ugm-3,8,R,ugm-3
06-01-1998,14:00,21,R,ugm-3,44,R,ugm-3,76,R,ugm-3,32,R,ugm-3
06-01-1998,15:00,13,R,ugm-3,36,R,ugm-3,55,R,ugm-3,36,R,ugm-3
06-01-1998,16:00,16,R,ugm-3,46,R,ugm-3,71,R,ugm-3,18,R,ugm-3
06-01-1998,17:00,23,R,ugm-3,55,R,ugm-3,90,R,ugm-3,6,R,ugm-3
06-01-1998,18:00,26,R,ugm-3,53,R,ugm-3,94,R,ugm-3,10,R,ugm-3
06-01-1998,19:00,16,R,ugm-3,40,R,ugm-3,65,R,ugm-3,26,R,ugm-3
06-01-1998,20:00,14,R,ugm-3,36,R,ugm-3,57,R,ugm-3,30,R,ugm-3
06-01-1998,21:00,8,R,ugm-3,23,R,ugm-3,34,R,ugm-3,46,R,ugm-3
06-01-1998,22:00,6,R,ugm-3,17,R,ugm-3,27,R,ugm-3,54,R,ugm-3
06-01-1998,23:00,8,R,ugm-3,21,R,ugm-3,32,R,ugm-3,48,R,ugm-3
06-01-1998,24:00,6,R,ugm-3,15,R,ugm-3,25,R,ugm-3,56,R,ugm-3
07-01-1998,01:00,4,R,ugm-3,6,R,ugm-3,11,R,ugm-3,68,R,ugm-3
07-01-1998,02:00,4,R,ugm-3,6,R,ugm-3,11,R,ugm-3,66,R,ugm-3
07-01-1998,03:00,4,R,ugm-3,6,R,ugm-3,11,R,ugm-3,66,R,ugm-3
07-01-1998,04:00,5,R,ugm-3,11,R,ugm-3,19,R,ugm-3,60,R,ugm-3
07-01-1998,05:00,9,R,ugm-3,13,R,ugm-3,27,R,ugm-3,60,R,ugm-3
07-01-1998,06:00,9,R,ugm-3,17,R,ugm-3,31,R,ugm-3,58,R,ugm-3
07-01-1998,07:00,13,R,ugm-3,27,R,ugm-3,46,R,ugm-3,50,R,ugm-3
07-01-1998,08:00,15,R,ugm-3,34,R,ugm-3,57,R,ugm-3,52,R,ugm-3
07-01-1998,09:00,20,R,ugm-3,44,R,ugm-3,74,R,ugm-3,44,R,ugm-3
07-01-1998,10:00,19,R,ugm-3,40,R,ugm-3,69,R,ugm-3,44,R,ugm-3
07-01-1998,11:00,14,R,ugm-3,32,R,ugm-3,53,R,ugm-3,54,R,ugm-3
07-01-1998,12:00,9,R,ugm-3,19,R,ugm-3,32,R,ugm-3,64,R,ugm-3
07-01-1998,13:00,10,R,ugm-3,25,R,ugm-3,40,R,ugm-3,60,R,ugm-3
07-01-1998,14:00,11,R,ugm-3,23,R,ugm-3,40,R,ugm-3,58,R,ugm-3
07-01-1998,15:00,11,R,ugm-3,27,R,ugm-3,44,R,ugm-3,56,R,ugm-3
07-01-1998,16:00,10,R,ugm-3,29,R,ugm-3,44,R,ugm-3,58,R,ugm-3
07-01-1998,17:00,19,R,ugm-3,46,R,ugm-3,74,R,ugm-3,38,R,ugm-3
07-01-1998,18:00,18,R,ugm-3,44,R,ugm-3,71,R,ugm-3,42,R,ugm-3
07-01-1998,19:00,13,R,ugm-3,42,R,ugm-3,61,R,ugm-3,44,R,ugm-3
07-01-1998,20:00,24,R,ugm-3,57,R,ugm-3,94,R,ugm-3,28,R,ugm-3
07-01-1998,21:00,18,R,ugm-3,44,R,ugm-3,71,R,ugm-3,38,R,ugm-3
07-01-1998,22:00,8,R,ugm-3,19,R,ugm-3,31,R,ugm-3,66,R,ugm-3
07-01-1998,23:00,8,R,ugm-3,21,R,ugm-3,32,R,ugm-3,64,R,ugm-3
07-01-1998,24:00,6,R,ugm-3,15,R,ugm-3,25,R,ugm-3,68,R,ugm-3
08-01-1998,01:00,5,R,ugm-3,10,R,ugm-3,17,R,ugm-3,74,R,ugm-3
08-01-1998,02:00,4,R,ugm-3,4,R,ugm-3,10,R,ugm-3,78,R,ugm-3
08-01-1998,03:00,4,R,ugm-3,6,R,ugm-3,11,R,ugm-3,78,R,ugm-3
08-01-1998,04:00,6,R,ugm-3,10,R,ugm-3,19,R,ugm-3,74,R,ugm-3
08-01-1998,05:00,9,R,ugm-3,15,R,ugm-3,29,R,ugm-3,62,R,ugm-3
08-01-1998,06:00,9,R,ugm-3,21,R,ugm-3,34,R,ugm-3,58,R,ugm-3
08-01-1998,07:00,14,R,ugm-3,38,R,ugm-3,59,R,ugm-3,42,R,ugm-3
08-01-1998,08:00,15,R,ugm-3,38,R,ugm-3,61,R,ugm-3,42,R,ugm-3
08-01-1998,09:00,15,R,ugm-3,36,R,ugm-3,59,R,ugm-3,46,R,ugm-3
08-01-1998,10:00,13,R,ugm-3,31,R,ugm-3,50,R,ugm-3,48,R,ugm-3
08-01-1998,11:00,10,R,ugm-3,25,R,ugm-3,40,R,ugm-3,56,R,ugm-3
08-01-1998,12:00,9,R,ugm-3,21,R,ugm-3,34,R,ugm-3,58,R,ugm-3
08-01-1998,13:00,9,R,ugm-3,19,R,ugm-3,32,R,ugm-3,60,R,ugm-3
08-01-1998,14:00,8,R,ugm-3,19,R,ugm-3,31,R,ugm-3,60,R,ugm-3
08-01-1998,15:00,8,R,ugm-3,21,R,ugm-3,32,R,ugm-3,60,R,ugm-3
08-01-1998,16:00,9,R,ugm-3,25,R,ugm-3,38,R,ugm-3,56,R,ugm-3
08-01-1998,17:00,10,R,ugm-3,27,R,ugm-3,42,R,ugm-3,54,R,ugm-3
08-01-1998,18:00,10,R,ugm-3,27,R,ugm-3,42,R,ugm-3,54,R,ugm-3
08-01-1998,19:00,10,R,ugm-3,27,R,ugm-3,42,R,ugm-3,56,R,ugm-3
08-01-1998,20:00,10,R,ugm-3,21,R,ugm-3,36,R,ugm-3,56,R,ugm-3
08-01-1998,21:00,9,R,ugm-3,19,R,ugm-3,32,R,ugm-3,58,R,ugm-3
08-01-1998,22:00,6,R,ugm-3,17,R,ugm-3,27,R,ugm-3,60,R,ugm-3
08-01-1998,23:00,5,R,ugm-3,13,R,ugm-3,21,R,ugm-3,62,R,ugm-3
08-01-1998,24:00,5,R,ugm-3,13,R,ugm-3,21,R,ugm-3,60,R,ugm-3
09-01-1998,01:00,4,R,ugm-3,10,R,ugm-3,15,R,ugm-3,62,R,ugm-3
09-01-1998,02:00,4,R,ugm-3,6,R,ugm-3,11,R,ugm-3,64,R,ugm-3
09-01-1998,03:00,4,R,ugm-3,6,R,ugm-3,11,R,ugm-3,64,R,ugm-3
09-01-1998,04:00,6,R,ugm-3,8,R,ugm-3,17,R,ugm-3,62,R,ugm-3
09-01-1998,05:00,5,R,ugm-3,8,R,ugm-3,15,R,ugm-3,62,R,ugm-3
09-01-1998,06:00,6,R,ugm-3,11,R,ugm-3,21,R,ugm-3,56,R,ugm-3
09-01-1998,07:00,13,R,ugm-3,27,R,ugm-3,46,R,ugm-3,38,R,ugm-3
09-01-1998,08:00,24,R,ugm-3,42,R,ugm-3,78,R,ugm-3,22,R,ugm-3
09-01-1998,09:00,19,R,ugm-3,36,R,ugm-3,65,R,ugm-3,28,R,ugm-3
09-01-1998,10:00,15,R,ugm-3,29,R,ugm-3,52,R,ugm-3,38,R,ugm-3
09-01-1998,11:00,14,R,ugm-3,31,R,ugm-3,52,R,ugm-3,36,R,ugm-3
09-01-1998,12:00,,,,,,,,,,,,
09-01-1998,13:00,16,R,ugm-3,31,R,ugm-3,55,R,ugm-3,36,R,ugm-3
09-01-1998,14:00,16,R,ugm-3,32,R,ugm-3,57,R,ugm-3,34,R,ugm-3
09-01-1998,15:00,16,R,ugm-3,40,R,ugm-3,65,R,ugm-3,28,R,ugm-3
09-01-1998,16:00,18,R,ugm-3,46,R,ugm-3,73,R,ugm-3,20,R,ugm-3
09-01-1998,17:00,29,R,ugm-3,59,R,ugm-3,103,R,ugm-3,8,R,ugm-3
09-01-1998,18:00,28,R,ugm-3,61,R,ugm-3,103,R,ugm-3,4,R,ugm-3
09-01-1998,19:00,20,R,ugm-3,57,R,ugm-3,88,R,ugm-3,6,R,ugm-3
09-01-1998,20:00,34,R,ugm-3,65,R,ugm-3,117,R,ugm-3,2,R,ugm-3
09-01-1998,21:00,19,R,ugm-3,57,R,ugm-3,86,R,ugm-3,12,R,ugm-3
09-01-1998,22:00,6,R,ugm-3,34,R,ugm-3,44,R,ugm-3,30,R,ugm-3
09-01-1998,23:00,8,R,ugm-3,38,R,ugm-3,50,R,ugm-3,20,R,ugm-3
09-01-1998,24:00,8,R,ugm-3,40,R,ugm-3,52,R,ugm-3,16,R,ugm-3
10-01-1998,01:00,5,R,ugm-3,27,R,ugm-3,34,R,ugm-3,30,R,ugm-3
10-01-1998,02:00,4,R,ugm-3,25,R,ugm-3,31,R,ugm-3,28,R,ugm-3
10-01-1998,03:00,4,R,ugm-3,23,R,ugm-3,29,R,ugm-3,26,R,ugm-3
10-01-1998,04:00,3,R,ugm-3,17,R,ugm-3,21,R,ugm-3,32,R,ugm-3
10-01-1998,05:00,3,R,ugm-3,19,R,ugm-3,23,R,ugm-3,28,R,ugm-3
10-01-1998,06:00,4,R,ugm-3,31,R,ugm-3,36,R,ugm-3,18,R,ugm-3
10-01-1998,07:00,6,R,ugm-3,36,R,ugm-3,46,R,ugm-3,12,R,ugm-3
10-01-1998,08:00,13,R,ugm-3,42,R,ugm-3,61,R,ugm-3,6,R,ugm-3
10-01-1998,09:00,26,R,ugm-3,48,R,ugm-3,88,R,ugm-3,2,R,ugm-3
10-01-1998,10:00,39,R,ugm-3,44,R,ugm-3,103,R,ugm-3,4,R,ugm-3
10-01-1998,11:00,31,R,ugm-3,42,R,ugm-3,90,R,ugm-3,8,R,ugm-3
10-01-1998,12:00,36,R,ugm-3,42,R,ugm-3,97,R,ugm-3,8,R,ugm-3
10-01-1998,13:00,24,R,ugm-3,38,R,ugm-3,74,R,ugm-3,16,R,ugm-3
10-01-1998,14:00,33,R,ugm-3,48,R,ugm-3,97,R,ugm-3,12,R,ugm-3
10-01-1998,15:00,33,R,ugm-3,52,R,ugm-3,101,R,ugm-3,8,R,ugm-3
10-01-1998,16:00,39,R,ugm-3,55,R,ugm-3,115,R,ugm-3,4,R,ugm-3
10-01-1998,17:00,28,R,ugm-3,53,R,ugm-3,96,R,ugm-3,2,R,ugm-3
10-01-1998,18:00,25,R,ugm-3,52,R,ugm-3,90,R,ugm-3,2,R,ugm-3
10-01-1998,19:00,25,R,ugm-3,52,R,ugm-3,90,R,ugm-3,4,R,ugm-3
10-01-1998,20:00,55,R,ugm-3,53,R,ugm-3,138,R,ugm-3,0,R,ugm-3
10-01-1998,21:00,65,R,ugm-3,52,R,ugm-3,151,R,ugm-3,0,R,ugm-3
10-01-1998,22:00,60,R,ugm-3,48,R,ugm-3,139,R,ugm-3,0,R,ugm-3
10-01-1998,23:00,26,R,ugm-3,44,R,ugm-3,84,R,ugm-3,2,R,ugm-3
10-01-1998,24:00,86,R,ugm-3,44,R,ugm-3,176,R,ugm-3,0,R,ugm-3
11-01-1998,01:00,20,R,ugm-3,40,R,ugm-3,71,R,ugm-3,2,R,ugm-3
11-01-1998,02:00,14,R,ugm-3,38,R,ugm-3,59,R,ugm-3,2,R,ugm-3
11-01-1998,03:00,18,R,ugm-3,38,R,ugm-3,65,R,ugm-3,2,R,ugm-3
11-01-1998,04:00,29,R,ugm-3,36,R,ugm-3,80,R,ugm-3,2,R,ugm-3
11-01-1998,05:00,8,R,ugm-3,29,R,ugm-3,40,R,ugm-3,8,R,ugm-3
11-01-1998,06:00,11,R,ugm-3,34,R,ugm-3,52,R,ugm-3,6,R,ugm-3
11-01-1998,07:00,14,R,ugm-3,38,R,ugm-3,59,R,ugm-3,4,R,ugm-3
11-01-1998,08:00,31,R,ugm-3,46,R,ugm-3,94,R,ugm-3,0,R,ugm-3
11-01-1998,09:00,10,R,ugm-3,31,R,ugm-3,46,R,ugm-3,14,R,ugm-3
11-01-1998,10:00,20,R,ugm-3,38,R,ugm-3,69,R,ugm-3,10,R,ugm-3
11-01-1998,11:00,29,R,ugm-3,44,R,ugm-3,88,R,ugm-3,8,R,ugm-3
11-01-1998,12:00,20,R,ugm-3,40,R,ugm-3,71,R,ugm-3,14,R,ugm-3
11-01-1998,13:00,23,R,ugm-3,38,R,ugm-3,73,R,ugm-3,20,R,ugm-3
11-01-1998,14:00,16,R,ugm-3,34,R,ugm-3,59,R,ugm-3,22,R,ugm-3
11-01-1998,15:00,13,R,ugm-3,34,R,ugm-3,53,R,ugm-3,22,R,ugm-3
11-01-1998,16:00,13,R,ugm-3,38,R,ugm-3,57,R,ugm-3,18,R,ugm-3
11-01-1998,17:00,13,R,ugm-3,40,R,ugm-3,59,R,ugm-3,16,R,ugm-3
11-01-1998,18:00,9,R,ugm-3,32,R,ugm-3,46,R,ugm-3,22,R,ugm-3
11-01-1998,19:00,10,R,ugm-3,32,R,ugm-3,48,R,ugm-3,22,R,ugm-3
11-01-1998,20:00,19,R,ugm-3,46,R,ugm-3,74,R,ugm-3,10,R,ugm-3
11-01-1998,21:00,19,R,ugm-3,50,R,ugm-3,78,R,ugm-3,6,R,ugm-3
11-01-1998,22:00,15,R,ugm-3,46,R,ugm-3,69,R,ugm-3,10,R,ugm-3
11-01-1998,23:00,8,R,ugm-3,34,R,ugm-3,46,R,ugm-3,16,R,ugm-3
11-01-1998,24:00,6,R,ugm-3,31,R,ugm-3,40,R,ugm-3,20,R,ugm-3
12-01-1998,01:00,3,R,ugm-3,23,R,ugm-3,27,R,ugm-3,24,R,ugm-3
12-01-1998,02:00,1,R,ugm-3,17,R,ugm-3,19,R,ugm-3,30,R,ugm-3
12-01-1998,03:00,3,R,ugm-3,13,R,ugm-3,17,R,ugm-3,30,R,ugm-3
12-01-1998,04:00,3,R,ugm-3,15,R,ugm-3,19,R,ugm-3,26,R,ugm-3
12-01-1998,05:00,1,R,ugm-3,15,R,ugm-3,17,R,ugm-3,30,R,ugm-3
12-01-1998,06:00,5,R,ugm-3,19,R,ugm-3,27,R,ugm-3,30,R,ugm-3
12-01-1998,07:00,9,R,ugm-3,27,R,ugm-3,40,R,ugm-3,20,R,ugm-3
12-01-1998,08:00,19,R,ugm-3,40,R,ugm-3,69,R,ugm-3,10,R,ugm-3
12-01-1998,09:00,28,R,ugm-3,46,R,ugm-3,88,R,ugm-3,4,R,ugm-3
12-01-1998,10:00,39,R,ugm-3,50,R,ugm-3,109,R,ugm-3,6,R,ugm-3
12-01-1998,11:00,26,R,ugm-3,42,R,ugm-3,82,R,ugm-3,6,R,ugm-3
12-01-1998,12:00,24,R,ugm-3,38,R,ugm-3,74,R,ugm-3,10,R,ugm-3
12-01-1998,13:00,20,R,ugm-3,38,R,ugm-3,69,R,ugm-3,14,R,ugm-3
12-01-1998,14:00,21,R,ugm-3,42,R,ugm-3,74,R,ugm-3,14,R,ugm-3
12-01-1998,15:00,20,R,ugm-3,44,R,ugm-3,74,R,ugm-3,10,R,ugm-3
12-01-1998,16:00,15,R,ugm-3,46,R,ugm-3,69,R,ugm-3,8,R,ugm-3
12-01-1998,17:00,25,R,ugm-3,52,R,ugm-3,90,R,ugm-3,4,R,ugm-3
12-01-1998,18:00,39,R,ugm-3,55,R,ugm-3,115,R,ugm-3,0,R,ugm-3
12-01-1998,19:00,26,R,ugm-3,53,R,ugm-3,94,R,ugm-3,2,R,ugm-3
12-01-1998,20:00,18,R,ugm-3,46,R,ugm-3,73,R,ugm-3,4,R,ugm-3
12-01-1998,21:00,19,R,ugm-3,44,R,ugm-3,73,R,ugm-3,6,R,ugm-3
12-01-1998,22:00,10,R,ugm-3,36,R,ugm-3,52,R,ugm-3,12,R,ugm-3
12-01-1998,23:00,8,R,ugm-3,29,R,ugm-3,40,R,ugm-3,14,R,ugm-3
12-01-1998,24:00,6,R,ugm-3,31,R,ugm-3,40,R,ugm-3,12,R,ugm-3
13-01-1998,01:00,9,R,ugm-3,34,R,ugm-3,48,R,ugm-3,4,R,ugm-3
13-01-1998,02:00,8,R,ugm-3,29,R,ugm-3,40,R,ugm-3,6,R,ugm-3
13-01-1998,03:00,3,R,ugm-3,23,R,ugm-3,27,R,ugm-3,14,R,ugm-3
13-01-1998,04:00,1,R,ugm-3,15,R,ugm-3,17,R,ugm-3,26,R,ugm-3
13-01-1998,05:00,3,R,ugm-3,15,R,ugm-3,19,R,ugm-3,28,R,ugm-3
13-01-1998,06:00,4,R,ugm-3,19,R,ugm-3,25,R,ugm-3,26,R,ugm-3
13-01-1998,07:00,8,R,ugm-3,36,R,ugm-3,48,R,ugm-3,14,R,ugm-3
13-01-1998,08:00,19,R,ugm-3,44,R,ugm-3,73,R,ugm-3,6,R,ugm-3
13-01-1998,09:00,19,R,ugm-3,42,R,ugm-3,71,R,ugm-3,6,R,ugm-3
13-01-1998,10:00,18,R,ugm-3,36,R,ugm-3,63,R,ugm-3,12,R,ugm-3
13-01-1998,11:00,14,R,ugm-3,32,R,ugm-3,53,R,ugm-3,18,R,ugm-3
13-01-1998,12:00,13,R,ugm-3,31,R,ugm-3,50,R,ugm-3,22,R,ugm-3
13-01-1998,13:00,14,R,ugm-3,34,R,ugm-3,55,R,ugm-3,20,R,ugm-3
13-01-1998,14:00,18,R,ugm-3,36,R,ugm-3,63,R,ugm-3,18,R,ugm-3
13-01-1998,15:00,13,R,ugm-3,36,R,ugm-3,55,R,ugm-3,22,R,ugm-3
13-01-1998,16:00,19,R,ugm-3,48,R,ugm-3,76,R,ugm-3,14,R,ugm-3
13-01-1998,17:00,13,R,ugm-3,46,R,ugm-3,65,R,ugm-3,20,R,ugm-3
13-01-1998,18:00,11,R,ugm-3,44,R,ugm-3,61,R,ugm-3,24,R,ugm-3
13-01-1998,19:00,6,R,ugm-3,31,R,ugm-3,40,R,ugm-3,40,R,ugm-3
13-01-1998,20:00,5,R,ugm-3,19,R,ugm-3,27,R,ugm-3,54,R,ugm-3
13-01-1998,21:00,4,R,ugm-3,17,R,ugm-3,23,R,ugm-3,58,R,ugm-3
13-01-1998,22:00,4,R,ugm-3,13,R,ugm-3,19,R,ugm-3,58,R,ugm-3
13-01-1998,23:00,4,R,ugm-3,13,R,ugm-3,19,R,ugm-3,58,R,ugm-3
13-01-1998,24:00,1,R,ugm-3,11,R,ugm-3,13,R,ugm-3,62,R,ugm-3
14-01-1998,01:00,1,R,ugm-3,6,R,ugm-3,8,R,ugm-3,62,R,ugm-3
14-01-1998,02:00,1,R,ugm-3,8,R,ugm-3,10,R,ugm-3,60,R,ugm-3
14-01-1998,03:00,3,R,ugm-3,11,R,ugm-3,15,R,ugm-3,54,R,ugm-3
14-01-1998,04:00,1,R,ugm-3,11,R,ugm-3,13,R,ugm-3,48,R,ugm-3
14-01-1998,05:00,1,R,ugm-3,11,R,ugm-3,13,R,ugm-3,48,R,ugm-3
14-01-1998,06:00,1,R,ugm-3,11,R,ugm-3,13,R,ugm-3,42,R,ugm-3
14-01-1998,07:00,5,R,ugm-3,17,R,ugm-3,25,R,ugm-3,42,R,ugm-3
14-01-1998,08:00,8,R,ugm-3,31,R,ugm-3,42,R,ugm-3,44,R,ugm-3
14-01-1998,09:00,10,R,ugm-3,38,R,ugm-3,53,R,ugm-3,36,R,ugm-3
14-01-1998,10:00,15,R,ugm-3,40,R,ugm-3,63,R,ugm-3,28,R,ugm-3
14-01-1998,11:00,11,R,ugm-3,31,R,ugm-3,48,R,ugm-3,34,R,ugm-3
14-01-1998,12:00,10,R,ugm-3,25,R,ugm-3,40,R,ugm-3,46,R,ugm-3
14-01-1998,13:00,10,R,ugm-3,27,R,ugm-3,42,R,ugm-3,48,R,ugm-3
14-01-1998,14:00,10,R,ugm-3,25,R,ugm-3,40,R,ugm-3,48,R,ugm-3
14-01-1998,15:00,10,R,ugm-3,31,R,ugm-3,46,R,ugm-3,44,R,ugm-3
14-01-1998,16:00,16,R,ugm-3,44,R,ugm-3,69,R,ugm-3,32,R,ugm-3
14-01-1998,17:00,20,R,ugm-3,57,R,ugm-3,88,R,ugm-3,20,R,ugm-3
14-01-1998,18:00,25,R,ugm-3,59,R,ugm-3,97,R,ugm-3,18,R,ugm-3
14-01-1998,19:00,25,R,ugm-3,55,R,ugm-3,94,R,ugm-3,20,R,ugm-3
14-01-1998,20:00,24,R,ugm-3,55,R,ugm-3,92,R,ugm-3,20,R,ugm-3
14-01-1998,21:00,20,R,ugm-3,50,R,ugm-3,80,R,ugm-3,24,R,ugm-3
14-01-1998,22:00,16,R,ugm-3,48,R,ugm-3,73,R,ugm-3,28,R,ugm-3
14-01-1998,23:00,11,R,ugm-3,38,R,ugm-3,55,R,ugm-3,34,R,ugm-3
14-01-1998,24:00,10,R,ugm-3,34,R,ugm-3,50,R,ugm-3,34,R,ugm-3
15-01-1998,01:00,5,R,ugm-3,23,R,ugm-3,31,R,ugm-3,44,R,ugm-3
15-01-1998,02:00,4,R,ugm-3,10,R,ugm-3,15,R,ugm-3,58,R,ugm-3
15-01-1998,03:00,4,R,ugm-3,6,R,ugm-3,11,R,ugm-3,62,R,ugm-3
15-01-1998,04:00,4,R,ugm-3,4,R,ugm-3,10,R,ugm-3,62,R,ugm-3
15-01-1998,05:00,1,R,ugm-3,4,R,ugm-3,6,R,ugm-3,64,R,ugm-3
15-01-1998,06:00,3,R,ugm-3,10,R,ugm-3,13,R,ugm-3,62,R,ugm-3
15-01-1998,07:00,8,R,ugm-3,21,R,ugm-3,32,R,ugm-3,50,R,ugm-3
15-01-1998,08:00,14,R,ugm-3,40,R,ugm-3,61,R,ugm-3,34,R,ugm-3
15-01-1998,09:00,19,R,ugm-3,46,R,ugm-3,74,R,ugm-3,30,R,ugm-3
15-01-1998,10:00,14,R,ugm-3,31,R,ugm-3,52,R,ugm-3,44,R,ugm-3
15-01-1998,11:00,10,R,ugm-3,27,R,ugm-3,42,R,ugm-3,50,R,ugm-3
15-01-1998,12:00,11,R,ugm-3,31,R,ugm-3,48,R,ugm-3,48,R,ugm-3
15-01-1998,13:00,14,R,ugm-3,36,R,ugm-3,57,R,ugm-3,42,R,ugm-3
15-01-1998,14:00,19,R,ugm-3,48,R,ugm-3,76,R,ugm-3,30,R,ugm-3
15-01-1998,15:00,16,R,ugm-3,42,R,ugm-3,67,R,ugm-3,42,R,ugm-3
15-01-1998,16:00,18,R,ugm-3,44,R,ugm-3,71,R,ugm-3,38,R,ugm-3
15-01-1998,17:00,29,R,ugm-3,59,R,ugm-3,103,R,ugm-3,20,R,ugm-3
15-01-1998,18:00,56,R,ugm-3,74,R,ugm-3,160,R,ugm-3,6,R,ugm-3
15-01-1998,19:00,43,R,ugm-3,67,R,ugm-3,132,R,ugm-3,10,R,ugm-3
15-01-1998,20:00,38,R,ugm-3,65,R,ugm-3,122,R,ugm-3,8,R,ugm-3
15-01-1998,21:00,35,R,ugm-3,61,R,ugm-3,115,R,ugm-3,10,R,ugm-3
15-01-1998,22:00,19,R,ugm-3,48,R,ugm-3,76,R,ugm-3,24,R,ugm-3
15-01-1998,23:00,6,R,ugm-3,27,R,ugm-3,36,R,ugm-3,48,R,ugm-3
15-01-1998,24:00,5,R,ugm-3,19,R,ugm-3,27,R,ugm-3,54,R,ugm-3
16-01-1998,01:00,4,R,ugm-3,13,R,ugm-3,19,R,ugm-3,58,R,ugm-3
16-01-1998,02:00,3,R,ugm-3,13,R,ugm-3,17,R,ugm-3,56,R,ugm-3
16-01-1998,03:00,1,R,ugm-3,8,R,ugm-3,10,R,ugm-3,66,R,ugm-3
16-01-1998,04:00,9,R,ugm-3,13,R,ugm-3,27,R,ugm-3,64,R,ugm-3
16-01-1998,05:00,6,R,ugm-3,13,R,ugm-3,23,R,ugm-3,66,R,ugm-3
16-01-1998,06:00,8,R,ugm-3,21,R,ugm-3,32,R,ugm-3,58,R,ugm-3
16-01-1998,07:00,16,R,ugm-3,40,R,ugm-3,65,R,ugm-3,36,R,ugm-3
16-01-1998,08:00,25,R,ugm-3,53,R,ugm-3,92,R,ugm-3,24,R,ugm-3
16-01-1998,09:00,33,R,ugm-3,63,R,ugm-3,113,R,ugm-3,12,R,ugm-3
16-01-1998,10:00,31,R,ugm-3,59,R,ugm-3,107,R,ugm-3,14,R,ugm-3
16-01-1998,11:00,14,R,ugm-3,48,R,ugm-3,69,R,ugm-3,22,R,ugm-3
16-01-1998,12:00,16,R,ugm-3,44,R,ugm-3,69,R,ugm-3,26,R,ugm-3
16-01-1998,13:00,8,R,ugm-3,27,R,ugm-3,38,R,ugm-3,46,R,ugm-3
16-01-1998,14:00,8,R,ugm-3,31,R,ugm-3,42,R,ugm-3,42,R,ugm-3
16-01-1998,15:00,9,R,ugm-3,42,R,ugm-3,55,R,ugm-3,30,R,ugm-3
16-01-1998,16:00,10,R,ugm-3,46,R,ugm-3,61,R,ugm-3,24,R,ugm-3
16-01-1998,17:00,8,R,ugm-3,50,R,ugm-3,61,R,ugm-3,20,R,ugm-3
16-01-1998,18:00,9,R,ugm-3,48,R,ugm-3,61,R,ugm-3,20,R,ugm-3
16-01-1998,19:00,13,R,ugm-3,53,R,ugm-3,73,R,ugm-3,14,R,ugm-3
16-01-1998,20:00,9,R,ugm-3,48,R,ugm-3,61,R,ugm-3,20,R,ugm-3
16-01-1998,21:00,29,R,ugm-3,69,R,ugm-3,113,R,ugm-3,6,R,ugm-3
16-01-1998,22:00,44,R,ugm-3,73,R,ugm-3,139,R,ugm-3,2,R,ugm-3
16-01-1998,23:00,35,R,ugm-3,65,R,ugm-3,118,R,ugm-3,2,R,ugm-3
16-01-1998,24:00,15,R,ugm-3,53,R,ugm-3,76,R,ugm-3,8,R,ugm-3
17-01-1998,01:00,10,R,ugm-3,46,R,ugm-3,61,R,ugm-3,12,R,ugm-3
17-01-1998,02:00,5,R,ugm-3,34,R,ugm-3,42,R,ugm-3,22,R,ugm-3
17-01-1998,03:00,4,R,ugm-3,19,R,ugm-3,25,R,ugm-3,38,R,ugm-3
17-01-1998,04:00,1,R,ugm-3,11,R,ugm-3,13,R,ugm-3,48,R,ugm-3
17-01-1998,05:00,3,R,ugm-3,11,R,ugm-3,15,R,ugm-3,46,R,ugm-3
17-01-1998,06:00,3,R,ugm-3,11,R,ugm-3,15,R,ugm-3,48,R,ugm-3
17-01-1998,07:00,9,R,ugm-3,21,R,ugm-3,34,R,ugm-3,42,R,ugm-3
17-01-1998,08:00,14,R,ugm-3,36,R,ugm-3,57,R,ugm-3,28,R,ugm-3
17-01-1998,09:00,15,R,ugm-3,38,R,ugm-3,61,R,ugm-3,28,R,ugm-3